Location: Unspecified
(0.0000°N, 0.0000°E)
Time: 21:05:39
(UTC+00:00)

Vanguard 2 - Pass Details

Date: 06 October 2020
Orbit: 554 x 2937 km, 32.9° (Epoch: 20 October)

Event Time Altitude Azimuth Distance (km) Brightness Sun altitude
Rises 19:53:16 0° 219° (SW) 5,864 12.6 -31.2°
Reaches altitude 10° 19:57:23 10° 210° (SSW) 5,139 12.1 -32.2°
Maximum altitude 20:11:41 37° 148° (SSE) 3,920 10.8 -35.8°
Enters shadow 20:13:55 36° 135° (SE) 3,992 10.7 -36.3°
